Location: Paderno d�Adda
(45.6667°N, 9.4333°E)
Time: 14:17:10
(UTC+00:00)

H-2A R/B - Pass Details

Date: 19 September 2020
Orbit: 734 x 836 km, 98.2° (Epoch: 30 October)

Event Time Altitude Azimuth Distance (km) Brightness Sun altitude
Rises 18:41:38 0° 174° (S) 3,157 5.0 -14.0°
Reaches altitude 10° 18:43:55 10° 178° (S) 2,246 4.2 -14.4°
Maximum altitude 18:48:48 63° 259° (W) 843 2.4 -15.2°
Drops below altitude 10° 18:53:51 10° 340° (NNW) 2,313 5.0 -16.1°
Sets 18:56:13 0° 344° (NNW) 3,260 5.8 -16.4°
